SCP
0 0 0 0 0 0 0 0 0 0 0 0 0 0 0 0 0 0 0 0 0 0 0 1 1 1 1 1 1 1 1 1 1 1 1 1 1 1 1 1 1 1 1
0 0 0 0 0 0 0 0 0 0 0 0 0 0 0 0 0 0 0 0 0 0 0 0 0 1 0 0 1 1 1 1 1 1 1 1 1 1 1 1 1 1 0
0 0 0 0 0 0 0 0 0 0 0 0 0 0 0 0 0 0 0 0 0 0 0 0 0 0 0 0 0 0 0 0 0 1 1 1 1 1 1 1 1 1 1
0 0 0 0 0 0 0 0 0 0 0 0 0 0 0 0 -0 -0 -0 0 0 0 0 0 0 0 0 0 0 0 0 0 0 0 0 0 0 0 0 0 0 0 0
0 0 0 0 0 0 0 0 0 0 0 0 0 0 0 0 -0 -0 -0 -0 -0 -0 0 0 0 0 0 0 0 0 0 -0 -0 0 0 0 0 0 0 0 0 0 0
0 0 0 0 0 0 0 0 0 0 0 0 0 0 0 0 0 -0 -0 -0 -0 -0 -0 -0 -0 -0 0 0 0 0 0 0 -0 -0 -0 0 0 0 0 0 0 0 0
0 0 0 0 0 0 0 0 0 0 0 0 0 0 0 0 0 -0 0 -0 -0 -0 -0 -0 -0 -0 -0 0 0 0 0 0 0 0 0 0 0 0 0 0 0 0 0
0 0 0 0 0 0 0 0 0 0 0 0 0 0 0 0 0 0 0 -0 -0 -0 -0 -0 -0 0 0 0 0 0 0 0 0 0 0 0 0 0 0 0 0 0 0
0 0 0 0 0 0 0 0 0 0 0 0 0 0 0 0 0 0 0 0 -0 -0 -0 -0 -0 0 0 0 0 0 0 0 0 0 0 0 0 0 0 0 0 0 0
0 0 0 0 0 0 0 0 0 0 0 0 0 0 0 0 0 0 0 0 0 -0 -0 -0 0 0 0 0 0 0 0 0 -0 0 0 0 0 0 0 0 0 0 0
0 0 0 0 0 0 0 0 0 0 0 0 0 0 0 0 0 0 0 0 0 0 0 -0 -0 0 0 0 0 0 0 0 -0 -0 0 0 0 0 0 0 0 0 0
0 0 0 0 0 0 0 0 0 0 0 0 0 0 0 0 0 0 0 0 0 0 0 0 0 0 0 0 0 0 0 0 0 -0 0 -0 0 0 0 0 0 0 0
0 0 0 0 0 0 0 0 0 0 0 0 0 0 0 0 0 0 0 0 0 0 0 0 0 0 0 0 0 0 0 0 0 -0 -0 -0 0 0 0 0 0 0 0
0 0 0 0 0 0 0 0 0 0 0 0 0 0 0 0 0 0 0 0 0 0 0 0 0 0 0 0 0 0 0 0 0 -0 0 -0 0 0 -0 0 0 0 0
0 0 0 0 0 0 0 0 0 0 0 0 0 0 0 0 0 0 -0 0 0 0 0 0 0 0 0 0 0 0 0 0 0 0 0 0 0 0 -0 -0 -0 0 0
0 0 0 0 0 0 0 0 0 0 0 0 0 0 0 0 0 0 -0 0 0 0 0 0 0 0 0 0 0 0 0 0 0 0 0 0 0 0 -0 -0 -0 0 0
0 0 0 0 0 0 0 0 0 0 0 0 0 0 0 0 0 0 0 0 0 0 0 0 0 0 0 0 0 0 0 0 0 0 0 0 0 0 0 -0 0 0 0
0 0 0 0 0 0 0 0 0 0 0 0 0 0 0 0 0 0 0 0 0 0 0 0 0 0 0 0 0 0 0 0 0 0 0 0 0 0 0 -0 0 0 0
0 0 0 0 0 0 0 0 0 0 0 0 0 0 0 0 0 0 0 0 0 0 0 0 0 0 0 0 0 0 0 0 0 0 0 0 0 0 0 0 0 0 0
0 0 0 0 0 0 0 0 0 0 0 0 0 0 0 0 0 0 0 0 0 0 0 0 0 0 0 0 0 0 0 0 0 0 0 0 0 0 -0 -0 -0 0 0
0 0 0 0 0 0 0 0 0 0 0 0 0 0 0 0 0 0 0 0 0 0 0 0 0 0 0 0 0 0 0 0 0 0 0 0 -0 -0 0 0 0 0 0
0 0 0 0 0 0 0 0 0 0 0 0 0 0 0 0 0 0 0 0 0 0 0 0 0 0 0 0 0 0 0 0 0 0 -0 0 0 0 0 0 0 0 -0
0 0 0 0 0 0 0 0 0 0 0 0 0 0 0 0 0 0 0 0 0 0 0 0 0 0 0 0 0 0 0 0 0 -0 0 -0 0 0 0 0 -0 -0 -0
0 0 0 0 0 0 0 0 0 0 0 0 0 0 0 0 0 0 0 0 0 0 0 0 0 0 0 0 0 0 0 0 0 -0 0 0 0 0 0 0 0 -0 -0
0 0 0 0 0 0 0 0 0 0 0 0 0 0 0 0 0 0 0 0 0 0 0 0 0 0 0 0 0 0 0 0 -0 0 0 0 0 0 0 0 -0 0 -0
0 0 0 0 0 0 0 0 0 0 0 0 0 0 0 0 0 0 0 0 0 0 0 0 0 0 0 0 -0 0 0 0 0 0 0 0 0 0 0 0 0 -0 -0
Wind_Speed_500mb
12 15 15 19 19 25 27 30 27 25 19 26 25 32 25 24 23 18 23 28 29 32 32 32 32 27 22 22 27 26 27 31 31 33 32 30 28 26 27 30 32 32 29
10 11 18 22 13 21 20 17 21 17 23 31 27 25 33 28 34 27 15 24 26 29 28 25 23 15 10 15 13 17 15 19 29 34 33 31 29 26 25 25 24 22 21
8 14 22 17 17 12 7 6 10 14 22 26 27 30 32 36 40 38 39 38 34 32 27 31 25 20 10 22 27 27 22 14 17 30 33 31 24 21 17 16 18 18 18
10 16 22 10 8 2 6 5 10 14 13 19 23 22 20 24 31 35 41 39 37 32 27 21 26 31 30 17 19 18 20 34 15 40 48 45 36 30 23 16 11 11 13
11 17 19 9 11 14 8 8 24 12 14 3 11 16 18 13 22 26 32 33 32 34 33 37 36 34 36 28 26 24 19 40 42 27 15 26 27 21 12 9 3 3 7
8 11 13 9 16 20 11 4 11 12 23 18 1 4 8 16 15 27 25 24 21 24 29 32 31 36 37 41 38 36 31 25 34 32 31 16 4 9 16 7 4 4 7
9 2 9 9 16 23 17 9 11 16 25 29 9 6 2 12 13 22 25 25 19 20 26 33 33 35 31 31 31 33 28 24 20 20 18 20 23 21 12 5 9 9 9
8 3 12 11 11 15 15 14 15 23 25 32 31 15 16 17 19 11 25 25 24 26 27 32 31 27 23 21 26 27 27 27 32 29 20 12 5 2 7 10 13 14 15
7 11 11 9 6 8 19 13 11 14 15 24 31 28 11 14 13 8 18 17 19 23 19 16 20 15 15 19 23 29 35 37 40 26 22 21 18 15 10 5 14 18 18
7 10 12 6 12 17 18 13 9 8 12 23 25 28 22 29 22 9 32 22 11 11 8 14 23 12 16 24 26 28 30 37 40 27 27 29 21 17 14 12 12 10 16
7 10 12 11 10 13 20 23 25 13 19 22 24 23 16 15 24 31 31 25 29 5 13 24 27 11 13 15 24 21 29 39 41 47 31 38 35 24 16 14 12 15 15
8 10 3 5 9 5 12 18 20 23 15 17 20 22 25 23 23 24 30 26 28 37 8 27 24 8 12 19 22 28 38 39 41 40 41 41 43 34 28 25 21 16 15
6 6 2 3 7 5 15 12 14 19 17 10 13 16 17 17 18 17 22 26 29 29 21 25 27 17 30 32 34 29 38 38 44 36 47 40 36 36 33 36 35 30 27
12 11 8 8 4 11 3 6 10 11 13 17 19 20 9 15 10 13 19 22 28 34 30 27 32 26 34 31 36 41 48 44 39 35 46 30 39 38 47 49 48 48 42
20 13 10 10 5 15 9 5 3 11 16 10 11 16 15 13 11 19 20 19 23 32 39 47 40 39 41 40 42 47 46 41 38 32 30 37 39 44 50 53 59 61 54
20 18 14 11 6 5 11 12 9 4 12 8 9 11 15 17 14 22 26 23 23 34 37 46 45 45 46 34 35 38 40 41 34 32 34 39 44 45 53 54 58 51 44
29 24 15 9 6 4 14 15 9 5 2 6 13 11 20 20 22 27 37 34 30 31 42 44 49 49 38 42 42 33 31 34 33 34 36 42 42 46 51 50 46 46 37
33 23 15 12 10 7 9 12 13 3 12 12 16 20 25 28 33 41 40 37 36 35 42 47 46 42 44 30 27 26 24 26 33 36 36 33 40 54 46 48 45 33 31
21 24 20 17 16 11 10 14 16 16 16 19 20 23 30 37 42 39 39 32 28 32 36 43 42 43 36 45 43 38 37 39 43 35 34 43 47 44 37 41 32 31 29
17 23 17 9 11 14 14 7 6 9 16 23 27 33 39 41 42 40 42 26 34 31 40 39 42 42 43 43 48 45 51 55 49 43 35 35 38 39 36 35 31 28 27
22 15 14 11 14 15 20 19 21 21 24 35 35 38 40 35 40 32 23 29 29 34 43 46 47 42 41 45 41 48 49 48 41 31 29 31 40 38 34 25 28 28 33
24 22 21 16 16 17 13 18 18 25 33 33 38 42 36 40 38 31 26 28 33 36 50 46 41 34 35 39 46 47 45 37 36 29 42 41 37 36 25 26 30 33 31
28 27 22 18 19 20 22 23 23 24 29 34 42 40 42 42 36 28 26 32 39 51 39 28 26 29 38 43 45 44 34 33 33 35 45 54 35 31 28 34 41 34 21
26 23 20 24 23 24 23 26 22 27 33 39 40 41 38 29 24 24 31 46 48 34 24 23 32 35 44 35 33 33 35 37 38 35 37 49 36 33 35 31 8 6 14
23 17 20 19 19 21 19 20 26 29 36 35 35 39 30 19 17 34 44 38 37 32 27 29 33 29 24 24 30 35 36 37 43 42 41 40 43 47 44 14 13 18 25
19 19 16 14 15 19 17 23 27 30 32 26 33 34 23 13 30 35 38 34 36 39 34 27 23 19 25 25 30 32 37 41 42 47 43 47 47 43 38 29 45 27 23
Wind_Direction_500mb
41 28 360 351 357 26 35 49 36 39 22 359 19 27 10 8 351 306 318 320 328 328 335 310 291 293 274 268 272 262 253 248 244 237 227 218 214 209 205 208 214 222 227
53 6 357 9 28 39 30 44 51 38 25 31 36 34 29 28 33 35 344 303 319 330 330 326 317 301 259 251 244 237 226 243 242 229 217 207 199 194 190 192 199 205 211
27 8 15 37 57 48 3 60 96 74 35 24 39 42 32 24 25 33 39 39 37 39 35 47 56 63 124 107 131 109 140 167 127 187 175 177 156 149 145 155 183 196 199
29 26 28 58 53 25 317 54 97 89 51 53 40 39 34 33 32 39 48 45 45 49 43 48 46 44 38 30 49 26 29 27 20 325 61 88 130 138 137 143 172 181 199
30 24 23 41 23 323 0 88 74 67 14 357 41 31 27 59 32 31 28 38 40 39 41 48 52 48 39 30 29 4 328 349 11 4 313 327 23 47 100 102 119 182 213
45 29 19 28 36 21 45 112 74 47 28 18 32 74 360 55 52 46 31 9 21 14 47 33 35 37 38 41 42 43 44 31 33 39 31 32 39 244 334 7 344 263 265
93 299 57 40 41 25 47 85 97 76 44 20 270 247 156 118 78 20 31 35 23 7 39 38 41 32 37 31 43 47 42 32 18 23 34 53 47 14 8 304 300 294 279
57 150 103 119 43 13 53 72 122 80 65 40 30 76 51 143 1 4 20 37 58 61 62 46 34 33 24 33 26 15 18 4 349 343 331 351 40 24 346 324 312 305 295
54 116 131 131 73 5 33 71 74 89 73 66 54 50 60 28 80 39 26 18 72 82 62 52 46 35 23 1 346 352 349 349 350 342 333 316 299 285 271 271 302 300 295
78 85 110 115 56 37 47 62 36 78 82 84 81 65 97 62 44 26 44 38 95 96 44 14 12 347 337 335 347 350 349 350 348 345 358 359 342 316 304 266 236 275 287
106 68 72 79 62 31 41 39 45 88 93 87 71 60 53 68 48 42 27 18 52 2 330 11 12 323 324 345 348 341 337 343 350 351 353 351 350 343 323 307 286 267 276
104 102 87 54 119 64 26 40 44 53 117 97 87 71 52 38 31 27 20 17 10 22 44 25 10 10 12 1 348 341 329 332 338 345 340 335 337 336 341 328 306 293 278
165 171 352 199 110 65 23 72 28 37 98 112 95 71 63 58 36 25 16 7 349 360 3 12 16 7 337 322 320 321 320 326 326 330 327 325 324 322 328 327 324 310 300
235 233 309 187 150 134 68 73 21 10 89 80 57 33 24 31 18 4 5 358 346 334 336 335 342 340 342 333 320 316 321 323 316 318 315 314 317 319 323 323 319 312 298
209 238 261 191 234 165 184 196 305 31 84 40 44 30 22 22 9 353 344 341 349 342 323 321 325 325 325 313 321 317 316 315 308 305 324 315 323 321 324 319 317 312 304
209 220 194 213 228 183 175 190 209 29 81 49 4 354 356 360 340 347 337 327 319 319 318 324 326 326 321 312 307 311 311 309 306 306 302 312 316 316 321 319 313 313 310
213 210 215 195 186 307 196 212 193 87 297 311 327 325 327 329 323 324 318 310 311 313 313 318 324 324 329 331 324 305 312 308 311 306 301 303 310 312 315 319 314 311 305
220 222 172 197 201 254 255 199 174 259 241 272 292 296 303 312 309 307 316 304 307 305 311 313 326 329 331 338 329 315 321 309 304 308 301 304 301 308 312 313 310 305 307
197 179 197 223 206 243 273 203 209 231 251 276 292 303 303 304 306 311 308 308 311 300 302 318 320 321 325 321 316 313 306 306 311 299 301 298 303 310 321 314 312 309 304
178 187 210 210 193 231 273 256 270 288 298 292 295 298 300 302 306 304 306 299 307 301 318 316 315 316 314 312 319 321 321 323 317 315 303 305 314 317 318 311 308 312 308
208 221 222 205 216 245 251 249 258 263 281 299 299 308 313 311 312 311 303 295 294 311 321 311 309 314 304 309 320 325 323 323 323 327 315 318 314 315 313 310 310 310 311
199 212 226 235 234 258 262 265 254 267 291 297 308 317 315 319 308 315 285 279 305 313 318 308 315 312 312 322 325 325 327 332 337 349 330 328 323 322 314 304 301 301 302
212 213 219 228 244 249 259 277 287 295 299 310 319 321 318 309 304 287 281 296 308 310 308 315 311 312 312 320 323 320 318 322 320 326 318 315 332 318 315 312 301 284 275
210 220 226 234 246 255 254 265 283 297 306 318 314 318 305 294 289 282 313 319 318 325 299 295 296 305 310 314 316 317 324 323 318 323 328 320 339 326 332 331 330 314 291
210 218 231 247 250 261 251 257 278 291 309 310 312 314 320 282 299 329 338 341 348 350 334 301 298 303 312 314 330 314 322 326 325 329 328 330 340 332 346 11 346 317 299
215 227 235 239 254 251 238 262 282 289 306 316 321 314 315 326 342 346 350 353 343 347 346 346 334 331 328 329 345 324 326 315 314 318 324 317 327 328 331 328 331 334 321
Wind_Speed_850mb
12 15 15 19 19 25 27 30 27 25 19 26 25 32 25 24 23 18 23 28 29 32 32 32 32 27 22 22 27 26 27 31 31 33 32 30 28 26 27 30 32 32 29
10 11 18 22 13 21 20 17 21 17 23 31 27 25 33 28 34 27 15 24 26 29 28 25 23 15 10 15 13 17 15 19 29 34 33 31 29 26 25 25 24 22 21
8 14 22 17 17 12 7 6 10 14 22 26 27 30 32 36 40 38 39 38 34 32 27 31 25 20 10 22 27 27 22 14 17 30 33 31 24 21 17 16 18 18 18
10 16 22 10 8 2 6 5 10 14 13 19 23 22 20 24 31 35 41 39 37 32 27 21 26 31 30 17 19 18 20 34 15 40 48 45 36 30 23 16 11 11 13
11 17 19 9 11 14 8 8 24 12 14 3 11 16 18 13 22 26 32 33 32 34 33 37 36 34 36 28 26 24 19 40 42 27 15 26 27 21 12 9 3 3 7
8 11 13 9 16 20 11 4 11 12 23 18 1 4 8 16 15 27 25 24 21 24 29 32 31 36 37 41 38 36 31 25 34 32 31 16 4 9 16 7 4 4 7
9 2 9 9 16 23 17 9 11 16 25 29 9 6 2 12 13 22 25 25 19 20 26 33 33 35 31 31 31 33 28 24 20 20 18 20 23 21 12 5 9 9 9
8 3 12 11 11 15 15 14 15 23 25 32 31 15 16 17 19 11 25 25 24 26 27 32 31 27 23 21 26 27 27 27 32 29 20 12 5 2 7 10 13 14 15
7 11 11 9 6 8 19 13 11 14 15 24 31 28 11 14 13 8 18 17 19 23 19 16 20 15 15 19 23 29 35 37 40 26 22 21 18 15 10 5 14 18 18
7 10 12 6 12 17 18 13 9 8 12 23 25 28 22 29 22 9 32 22 11 11 8 14 23 12 16 24 26 28 30 37 40 27 27 29 21 17 14 12 12 10 16
7 10 12 11 10 13 20 23 25 13 19 22 24 23 16 15 24 31 31 25 29 5 13 24 27 11 13 15 24 21 29 39 41 47 31 38 35 24 16 14 12 15 15
8 10 3 5 9 5 12 18 20 23 15 17 20 22 25 23 23 24 30 26 28 37 8 27 24 8 12 19 22 28 38 39 41 40 41 41 43 34 28 25 21 16 15
6 6 2 3 7 5 15 12 14 19 17 10 13 16 17 17 18 17 22 26 29 29 21 25 27 17 30 32 34 29 38 38 44 36 47 40 36 36 33 36 35 30 27
12 11 8 8 4 11 3 6 10 11 13 17 19 20 9 15 10 13 19 22 28 34 30 27 32 26 34 31 36 41 48 44 39 35 46 30 39 38 47 49 48 48 42
20 13 10 10 5 15 9 5 3 11 16 10 11 16 15 13 11 19 20 19 23 32 39 47 40 39 41 40 42 47 46 41 38 32 30 37 39 44 50 53 59 61 54
20 18 14 11 6 5 11 12 9 4 12 8 9 11 15 17 14 22 26 23 23 34 37 46 45 45 46 34 35 38 40 41 34 32 34 39 44 45 53 54 58 51 44
29 24 15 9 6 4 14 15 9 5 2 6 13 11 20 20 22 27 37 34 30 31 42 44 49 49 38 42 42 33 31 34 33 34 36 42 42 46 51 50 46 46 37
33 23 15 12 10 7 9 12 13 3 12 12 16 20 25 28 33 41 40 37 36 35 42 47 46 42 44 30 27 26 24 26 33 36 36 33 40 54 46 48 45 33 31
21 24 20 17 16 11 10 14 16 16 16 19 20 23 30 37 42 39 39 32 28 32 36 43 42 43 36 45 43 38 37 39 43 35 34 43 47 44 37 41 32 31 29
17 23 17 9 11 14 14 7 6 9 16 23 27 33 39 41 42 40 42 26 34 31 40 39 42 42 43 43 48 45 51 55 49 43 35 35 38 39 36 35 31 28 27
22 15 14 11 14 15 20 19 21 21 24 35 35 38 40 35 40 32 23 29 29 34 43 46 47 42 41 45 41 48 49 48 41 31 29 31 40 38 34 25 28 28 33
24 22 21 16 16 17 13 18 18 25 33 33 38 42 36 40 38 31 26 28 33 36 50 46 41 34 35 39 46 47 45 37 36 29 42 41 37 36 25 26 30 33 31
28 27 22 18 19 20 22 23 23 24 29 34 42 40 42 42 36 28 26 32 39 51 39 28 26 29 38 43 45 44 34 33 33 35 45 54 35 31 28 34 41 34 21
26 23 20 24 23 24 23 26 22 27 33 39 40 41 38 29 24 24 31 46 48 34 24 23 32 35 44 35 33 33 35 37 38 35 37 49 36 33 35 31 8 6 14
23 17 20 19 19 21 19 20 26 29 36 35 35 39 30 19 17 34 44 38 37 32 27 29 33 29 24 24 30 35 36 37 43 42 41 40 43 47 44 14 13 18 25
19 19 16 14 15 19 17 23 27 30 32 26 33 34 23 13 30 35 38 34 36 39 34 27 23 19 25 25 30 32 37 41 42 47 43 47 47 43 38 29 45 27 23
Wind_Direction_850mb
41 28 360 351 357 26 35 49 36 39 22 359 19 27 10 8 351 306 318 320 328 328 335 310 291 293 274 268 272 262 253 248 244 237 227 218 214 209 205 208 214 222 227
53 6 357 9 28 39 30 44 51 38 25 31 36 34 29 28 33 35 344 303 319 330 330 326 317 301 259 251 244 237 226 243 242 229 217 207 199 194 190 192 199 205 211
27 8 15 37 57 48 3 60 96 74 35 24 39 42 32 24 25 33 39 39 37 39 35 47 56 63 124 107 131 109 140 167 127 187 175 177 156 149 145 155 183 196 199
29 26 28 58 53 25 317 54 97 89 51 53 40 39 34 33 32 39 48 45 45 49 43 48 46 44 38 30 49 26 29 27 20 325 61 88 130 138 137 143 172 181 199
30 24 23 41 23 323 0 88 74 67 14 357 41 31 27 59 32 31 28 38 40 39 41 48 52 48 39 30 29 4 328 349 11 4 313 327 23 47 100 102 119 182 213
45 29 19 28 36 21 45 112 74 47 28 18 32 74 360 55 52 46 31 9 21 14 47 33 35 37 38 41 42 43 44 31 33 39 31 32 39 244 334 7 344 263 265
93 299 57 40 41 25 47 85 97 76 44 20 270 247 156 118 78 20 31 35 23 7 39 38 41 32 37 31 43 47 42 32 18 23 34 53 47 14 8 304 300 294 279
57 150 103 119 43 13 53 72 122 80 65 40 30 76 51 143 1 4 20 37 58 61 62 46 34 33 24 33 26 15 18 4 349 343 331 351 40 24 346 324 312 305 295
54 116 131 131 73 5 33 71 74 89 73 66 54 50 60 28 80 39 26 18 72 82 62 52 46 35 23 1 346 352 349 349 350 342 333 316 299 285 271 271 302 300 295
78 85 110 115 56 37 47 62 36 78 82 84 81 65 97 62 44 26 44 38 95 96 44 14 12 347 337 335 347 350 349 350 348 345 358 359 342 316 304 266 236 275 287
106 68 72 79 62 31 41 39 45 88 93 87 71 60 53 68 48 42 27 18 52 2 330 11 12 323 324 345 348 341 337 343 350 351 353 351 350 343 323 307 286 267 276
104 102 87 54 119 64 26 40 44 53 117 97 87 71 52 38 31 27 20 17 10 22 44 25 10 10 12 1 348 341 329 332 338 345 340 335 337 336 341 328 306 293 278
165 171 352 199 110 65 23 72 28 37 98 112 95 71 63 58 36 25 16 7 349 360 3 12 16 7 337 322 320 321 320 326 326 330 327 325 324 322 328 327 324 310 300
235 233 309 187 150 134 68 73 21 10 89 80 57 33 24 31 18 4 5 358 346 334 336 335 342 340 342 333 320 316 321 323 316 318 315 314 317 319 323 323 319 312 298
209 238 261 191 234 165 184 196 305 31 84 40 44 30 22 22 9 353 344 341 349 342 323 321 325 325 325 313 321 317 316 315 308 305 324 315 323 321 324 319 317 312 304
209 220 194 213 228 183 175 190 209 29 81 49 4 354 356 360 340 347 337 327 319 319 318 324 326 326 321 312 307 311 311 309 306 306 302 312 316 316 321 319 313 313 310
213 210 215 195 186 307 196 212 193 87 297 311 327 325 327 329 323 324 318 310 311 313 313 318 324 324 329 331 324 305 312 308 311 306 301 303 310 312 315 319 314 311 305
220 222 172 197 201 254 255 199 174 259 241 272 292 296 303 312 309 307 316 304 307 305 311 313 326 329 331 338 329 315 321 309 304 308 301 304 301 308 312 313 310 305 307
197 179 197 223 206 243 273 203 209 231 251 276 292 303 303 304 306 311 308 308 311 300 302 318 320 321 325 321 316 313 306 306 311 299 301 298 303 310 321 314 312 309 304
178 187 210 210 193 231 273 256 270 288 298 292 295 298 300 302 306 304 306 299 307 301 318 316 315 316 314 312 319 321 321 323 317 315 303 305 314 317 318 311 308 312 308
208 221 222 205 216 245 251 249 258 263 281 299 299 308 313 311 312 311 303 295 294 311 321 311 309 314 304 309 320 325 323 323 323 327 315 318 314 315 313 310 310 310 311
199 212 226 235 234 258 262 265 254 267 291 297 308 317 315 319 308 315 285 279 305 313 318 308 315 312 312 322 325 325 327 332 337 349 330 328 323 322 314 304 301 301 302
212 213 219 228 244 249 259 277 287 295 299 310 319 321 318 309 304 287 281 296 308 310 308 315 311 312 312 320 323 320 318 322 320 326 318 315 332 318 315 312 301 284 275
210 220 226 234 246 255 254 265 283 297 306 318 314 318 305 294 289 282 313 319 318 325 299 295 296 305 310 314 316 317 324 323 318 323 328 320 339 326 332 331 330 314 291
210 218 231 247 250 261 251 257 278 291 309 310 312 314 320 282 299 329 338 341 348 350 334 301 298 303 312 314 330 314 322 326 325 329 328 330 340 332 346 11 346 317 299
215 227 235 239 254 251 238 262 282 289 306 316 321 314 315 326 342 346 350 353 343 347 346 346 334 331 328 329 345 324 326 315 314 318 324 317 327 328 331 328 331 334 321